Theta_e
324 323 323 322 323 321 321 321 320 321 321 321 320 320 322 324 320 320 320 319 319 318 317 313 311 310 308 309 307 307 307 308 309 309 310 311 312 314 315 316 316 318 320 320 321 321 320 319 319 319 318 316 316 317 318 319 321 322 323 323 321 322 323 323 323 324 327 330 330 330 333 339 339 343 342 341 342 346 349 350 350 350 350 350 351
322 321 322 322 321 321 320 320 320 320 319 319 320 320 320 319 320 318 317 316 318 316 314 312 310 308 307 306 306 306 307 308 308 309 310 310 312 314 315 316 315 318 319 318 319 320 318 316 316 317 316 315 315 315 316 317 318 319 320 321 320 321 323 322 323 323 322 326 327 330 331 335 335 339 341 340 341 346 344 347 347 349 350 350 349
322 321 321 320 320 320 319 318 318 318 318 318 317 318 319 319 320 316 316 315 317 316 312 310 309 308 307 306 306 306 307 308 308 309 309 310 311 312 315 316 316 318 318 318 319 319 317 316 313 313 315 312 313 313 315 315 317 318 318 320 320 320 322 323 322 320 321 323 327 327 328 331 332 333 338 339 339 339 341 344 346 349 351 351 349
321 320 320 320 320 319 318 317 316 316 316 317 316 316 317 318 320 316 315 314 314 314 310 308 308 307 306 306 306 306 307 307 308 309 309 310 310 312 313 315 316 316 317 318 319 319 317 314 312 312 312 310 310 311 312 313 315 316 317 318 319 319 321 322 323 320 321 321 324 326 329 329 331 332 335 335 334 334 336 338 343 343 346 349 350
321 320 320 319 319 318 317 316 316 315 316 317 316 316 316 316 319 317 314 313 313 313 311 309 307 307 306 305 305 305 306 307 308 308 309 310 310 311 313 315 316 316 315 316 320 318 316 314 313 311 309 308 309 310 311 312 314 316 315 317 318 320 320 321 322 322 321 321 323 326 329 329 330 330 331 329 329 330 332 334 336 336 338 344 348
320 320 320 319 318 317 316 316 315 315 315 315 316 316 316 315 315 317 315 312 312 312 311 309 309 306 306 306 305 305 306 307 308 308 309 310 311 312 313 315 317 316 315 315 315 318 316 314 313 311 309 308 308 310 311 312 314 315 315 316 317 318 318 319 322 322 321 321 322 323 326 325 326 327 327 328 326 325 327 330 331 331 333 337 342
319 318 318 318 317 316 316 315 315 314 313 313 315 317 316 314 314 314 315 312 311 312 311 309 310 307 307 306 306 306 306 308 308 309 309 310 311 312 313 315 316 315 314 314 314 315 317 316 314 312 309 308 309 311 313 314 316 315 318 316 317 317 317 319 321 320 320 321 322 323 322 325 325 323 325 325 326 326 323 324 324 327 330 332 337
319 318 318 317 317 317 316 316 315 315 314 313 313 315 316 314 314 315 315 312 311 311 311 309 309 310 309 307 307 309 307 308 310 311 312 313 313 313 314 317 315 314 314 313 313 312 313 313 313 312 310 310 313 314 315 317 317 316 316 317 318 317 317 319 319 318 319 320 320 319 320 321 322 324 324 322 321 322 324 323 321 323 325 329 334
319 319 319 318 317 317 317 316 316 316 314 313 312 313 315 314 313 314 314 316 317 311 311 311 309 308 307 306 306 307 308 309 312 314 315 314 313 313 314 315 315 314 313 312 312 311 309 309 310 311 312 316 319 319 320 319 316 314 315 316 321 318 318 318 317 317 316 317 318 319 318 319 319 320 319 318 318 319 323 323 321 323 325 326 329
318 318 318 319 320 318 317 317 314 314 313 312 312 312 313 315 314 313 312 313 314 313 310 312 310 309 306 305 306 308 308 310 317 320 321 318 312 313 314 314 314 313 313 311 311 311 309 305 309 315 315 316 317 318 318 319 320 319 317 320 320 320 318 315 315 315 315 313 315 316 316 316 317 319 318 319 320 321 321 321 319 321 323 323 326
317 317 317 318 319 318 317 315 314 314 313 313 313 313 313 315 314 313 313 314 314 315 312 311 310 308 306 305 305 308 308 312 316 318 319 320 315 311 313 312 313 312 311 309 309 310 308 307 304 308 312 314 313 316 316 317 319 319 321 323 325 324 320 317 315 313 314 313 313 314 313 315 317 319 319 319 319 319 319 319 319 321 320 320 318
317 317 318 317 318 318 318 316 314 314 314 313 313 314 313 313 313 312 311 312 317 315 312 311 310 309 308 306 306 309 308 315 317 317 318 319 318 312 311 312 313 311 310 308 307 307 307 307 306 305 306 310 310 308 312 315 316 318 319 320 323 325 325 322 319 314 312 311 311 312 312 312 314 315 317 318 318 318 319 318 318 319 320 320 320
316 316 317 318 316 317 317 316 315 314 315 316 316 315 313 312 311 311 311 315 314 313 311 311 310 309 307 306 307 308 307 315 316 316 317 318 316 313 309 313 314 311 309 307 306 305 305 307 305 304 303 313 313 307 307 306 312 316 316 317 319 321 320 322 324 320 315 311 310 310 312 313 312 314 319 319 321 316 318 319 320 321 320 320 321
316 317 317 317 317 316 316 316 316 316 317 316 315 313 313 313 313 313 314 312 311 312 312 311 310 309 308 307 307 308 308 314 316 317 316 316 316 313 308 311 313 312 309 307 305 304 304 305 302 303 302 304 307 307 307 304 304 305 306 306 307 312 317 320 321 323 321 314 311 310 313 317 316 318 322 322 321 319 318 320 322 320 320 320 322
314 314 315 316 316 316 316 316 315 315 315 315 315 314 314 313 312 314 314 311 310 310 310 310 312 314 311 307 307 308 310 314 316 317 314 315 315 313 306 309 311 310 309 308 306 304 302 304 304 301 302 302 310 310 308 304 303 304 304 305 306 306 306 309 312 314 318 314 313 313 315 317 317 319 323 322 321 320 322 323 323 322 322 323 324
314 314 315 315 315 315 315 315 315 315 315 314 314 314 313 313 313 315 316 312 312 312 312 312 312 310 310 308 309 305 306 313 315 314 314 314 314 309 306 306 307 308 309 308 306 304 303 303 302 301 302 302 314 314 315 311 302 302 303 303 305 305 306 315 317 319 319 318 318 320 321 320 324 324 325 324 319 318 323 322 322 320 318 315 315
313 317 317 315 316 315 315 315 316 314 314 313 313 313 313 312 312 318 313 311 310 310 310 310 314 311 311 311 307 306 307 312 312 314 313 314 313 306 305 305 306 307 306 308 307 306 305 303 302 304 304 305 314 313 314 315 302 302 302 302 304 304 305 307 315 318 319 320 322 324 327 326 325 325 324 326 323 321 316 315 315 316 315 312 314
315 315 314 317 316 315 316 316 316 317 314 312 313 313 313 312 311 318 312 312 309 309 310 311 309 313 315 309 309 308 307 311 313 312 313 314 313 305 305 303 303 305 306 308 308 307 307 313 317 306 306 309 314 314 313 314 303 302 302 302 303 302 304 306 309 311 316 319 320 320 321 326 326 323 323 324 323 323 313 311 312 312 314 315 313
312 312 313 315 315 315 316 315 314 314 313 312 313 312 312 312 317 314 312 312 312 310 319 309 310 310 311 312 321 311 307 312 314 313 314 312 312 305 306 302 303 303 305 306 307 307 304 310 314 313 312 315 313 312 312 313 304 303 302 301 302 302 303 305 308 307 308 310 311 315 314 316 318 319 319 321 322 324 315 313 313 312 311 313 314
312 312 313 314 315 315 318 319 318 316 312 312 313 313 315 316 311 313 312 312 312 311 311 312 309 310 313 312 314 312 309 310 313 313 312 314 313 309 305 303 304 304 303 307 306 305 305 306 312 314 316 314 312 310 310 311 308 305 303 301 303 303 306 306 314 311 307 310 310 310 311 310 310 311 312 312 318 320 318 317 315 313 312 312 315
314 314 313 314 314 314 313 314 316 316 313 312 314 318 316 313 312 311 311 311 310 310 310 312 312 310 310 311 312 311 313 311 317 315 315 314 314 311 304 305 303 304 301 306 304 304 305 306 305 313 314 312 311 309 308 310 314 310 306 304 305 312 314 305 311 314 308 312 312 311 309 308 308 309 311 311 314 316 319 316 318 317 316 316 313
314 313 313 313 315 314 314 314 317 317 316 316 310 310 312 313 313 310 312 310 309 309 310 314 311 310 310 310 314 311 316 321 312 319 315 313 313 315 309 308 309 306 303 302 303 305 305 305 307 313 313 310 309 308 308 310 315 311 309 310 312 314 312 314 308 308 308 310 308 308 308 306 306 307 310 311 311 316 315 314 315 317 319 320 318
313 312 313 313 316 315 314 316 317 318 316 316 312 310 312 312 313 317 311 310 309 308 308 309 308 307 308 309 309 309 310 317 322 317 317 313 312 313 314 311 314 309 302 303 303 304 305 305 308 314 310 306 305 308 310 312 317 308 309 310 311 314 312 309 310 307 307 309 308 306 306 305 306 305 308 308 309 310 310 313 314 315 317 321 324
313 313 318 315 313 315 316 320 317 315 317 317 316 311 313 311 312 314 314 313 310 308 308 311 309 309 308 308 311 310 311 312 319 320 315 314 311 310 311 312 312 308 308 305 304 305 305 305 310 308 306 303 306 309 313 315 311 308 309 311 313 312 308 309 304 307 308 308 306 304 304 305 304 305 307 309 311 308 310 313 313 315 316 318 319
314 314 314 312 315 313 314 314 313 313 311 316 313 315 313 312 311 310 313 311 310 308 307 310 310 310 311 313 308 308 310 311 311 319 318 316 313 312 313 313 312 311 307 306 309 308 310 309 307 308 310 310 311 311 314 314 313 312 313 313 312 305 307 304 305 305 304 305 305 305 303 305 305 307 307 307 312 309 311 312 314 314 314 316 318
315 315 311 311 313 313 310 310 312 312 313 314 315 313 311 314 313 310 311 311 309 312 309 311 312 310 310 307 308 308 310 309 308 310 315 314 315 314 313 316 313 312 311 308 310 310 311 312 312 312 314 314 314 311 310 311 313 314 313 313 305 306 305 302 304 303 303 303 306 305 302 304 304 307 309 308 307 306 308 310 309 310 311 312 311
321 319 313 312 312 311 310 309 311 312 310 311 312 315 317 313 312 317 314 309 309 309 312 314 312 311 310 309 308 310 309 309 307 307 307 306 306 313 309 309 314 312 309 305 307 306 310 313 313 314 313 313 312 313 313 313 311 309 305 307 308 306 306 304 303 302 306 303 306 303 303 304 306 307 305 306 306 306 309 311 306 307 309 310 308
316 312 313 313 315 312 312 321 320 313 311 311 310 309 311 315 312 312 312 310 308 308 312 312 312 312 308 307 306 306 307 307 307 305 304 306 307 304 307 310 301 300 302 301 301 307 307 311 311 311 310 308 307 305 304 307 308 308 306 305 305 309 312 312 311 304 303 303 303 304 305 304 302 304 305 305 305 306 308 308 308 305 308 307 304
317 312 313 311 312 318 318 318 316 312 310 311 312 311 310 311 312 313 314 311 310 311 310 309 312 310 308 307 306 308 309 310 311 311 313 311 309 305 303 301 301 300 309 307 306 305 304 303 306 307 305 307 305 303 302 303 306 305 305 305 303 303 305 302 302 302 303 304 303 304 304 302 301 304 304 305 305 304 304 304 305 304 304 304 304
315 312 315 312 310 316 318 315 315 316 312 310 311 313 326 322 314 312 311 325 325 318 313 313 312 310 308 309 311 307 306 306 315 307 306 304 306 303 307 304 303 304 307 304 308 300 300 300 302 304 304 303 302 304 303 303 304 303 303 308 307 305 304 304 302 303 306 304 303 303 303 302 300 302 302 305 303 302 304 305 302 304 302 301 301
316 314 318 316 320 320 317 312 312 312 313 311 312 313 314 314 307 308 314 324 316 308 303 305 308 313 314 308 310 314 314 308 304 301 300 299 298 297 297 295 296 296 298 302 300 298 300 301 303 303 304 303 304 303 304 302 304 303 303 303 303 306 306 303 301 304 304 304 303 302 302 301 300 302 302 304 303 301 301 303 302 303 301 301 301
312 313 314 316 320 324 313 314 317 315 315 312 311 313 311 310 312 308 306 308 308 304 301 301 300 302 305 308 310 308 309 304 302 298 297 297 296 295 294 294 294 295 297 301 301 301 300 300 303 303 303 302 302 305 303 302 302 301 300 302 302 306 303 302 301 301 301 301 300 302 300 300 301 302 301 302 303 299 300 300 299 301 301 301 303
312 311 313 320 320 324 318 315 316 317 315 315 315 313 311 311 309 310 313 307 306 302 301 300 299 299 299 298 298 300 301 299 298 297 296 295 295 295 295 294 294 294 299 300 299 300 300 302 302 303 302 302 300 300 301 302 301 302 302 301 302 302 301 301 302 303 303 301 300 300 300 300 301 301 301 301 299 297 299 298 298 299 299 299 302
314 314 314 316 316 313 314 314 313 313 313 312 313 313 315 316 312 312 312 313 314 309 304 301 298 297 297 296 297 297 296 296 297 296 296 296 295 295 295 297 295 293 298 302 300 300 300 301 304 302 301 302 302 304 303 302 303 302 303 302 301 300 300 300 301 302 302 301 299 301 301 299 301 297 297 297 298 299 297 299 297 298 298 299 299
314 325 325 325 314 313 312 313 314 314 314 316 314 315 316 317 317 316 313 313 313 312 312 314 309 300 305 304 299 296 296 296 297 296 295 295 295 295 296 300 301 300 297 299 302 301 302 305 304 304 302 302 302 304 302 300 301 302 301 301 301 299 301 302 301 300 299 298 299 299 301 299 297 301 299 297 296 295 297 298 298 299 298 299 299
315 314 315 319 320 318 316 315 315 313 313 313 315 316 317 317 317 316 314 315 315 312 313 309 310 314 305 297 296 297 297 298 298 296 294 295 294 296 300 299 299 300 304 303 304 306 306 303 304 302 302 302 303 300 299 301 302 300 299 301 305 302 301 301 302 300 300 300 300 302 300 296 298 298 295 298 297 297 296 298 298 300 302 298 300
315 315 315 315 315 315 316 316 315 316 321 319 318 316 316 317 318 315 316 312 313 313 311 310 310 312 314 318 313 296 295 295 294 293 293 292 291 299 299 301 301 301 305 304 305 308 304 304 304 302 302 302 301 298 302 300 300 300 305 301 300 299 299 299 301 302 297 298 296 296 296 295 295 296 297 296 298 297 298 299 298 300 301 302 302
316 315 315 316 316 318 317 316 317 325 322 319 318 315 316 316 316 315 315 314 314 314 311 310 320 311 310 310 321 314 300 294 293 294 293 293 296 298 299 302 303 303 304 304 305 305 304 303 302 301 301 299 298 297 299 300 301 300 301 303 304 304 308 306 305 299 299 297 296 295 298 296 295 295 299 297 296 296 297 299 297 296 298 302 300
316 322 324 325 324 318 315 318 319 317 317 318 317 317 317 315 315 314 312 311 312 311 313 312 312 312 311 309 308 314 309 303 304 306 305 300 299 299 299 300 302 303 305 305 307 307 302 302 303 301 301 299 301 299 299 300 300 300 301 301 301 300 299 296 296 297 297 295 295 294 295 295 295 295 298 296 297 296 295 297 299 298 297 297 298
319 317 321 327 324 324 322 323 320 318 320 317 315 315 314 314 313 314 313 311 311 310 310 310 311 312 312 309 311 312 310 310 310 309 309 307 304 302 300 302 303 303 305 304 305 303 302 301 301 302 301 299 300 299 301 300 301 301 301 301 298 298 297 296 295 296 295 296 295 295 295 294 297 296 295 297 298 296 297 299 301 301 299 297 299
315 316 327 325 325 320 322 322 320 318 317 317 316 315 314 316 315 316 313 312 312 311 312 312 310 311 312 312 310 310 312 311 311 312 313 313 310 307 304 303 305 304 307 306 307 304 302 301 301 301 300 300 301 303 302 300 301 301 301 303 300 300 298 296 296 296 296 297 295 295 294 295 297 295 295 296 302 298 298 299 300 300 300 298 298
315 315 319 321 322 321 318 321 319 321 321 319 317 315 316 316 314 314 314 315 316 315 312 311 311 313 311 309 305 302 310 313 313 312 313 315 315 311 311 307 305 305 305 305 305 305 302 302 302 302 301 303 303 302 302 299 299 299 300 300 300 299 298 296 297 296 296 295 296 296 295 298 300 299 298 303 294 295 296 297 297 299 300 299 299
320 317 317 319 318 319 318 318 319 315 314 313 313 321 320 318 315 315 314 317 316 315 313 312 311 314 314 312 312 307 309 311 317 314 311 311 311 313 312 310 308 307 307 307 306 305 304 304 304 303 304 303 302 302 301 299 300 299 299 300 299 298 297 298 297 297 296 295 295 298 296 297 297 294 295 298 295 296 295 296 299 300 300 298 298
317 319 322 322 320 319 321 318 317 317 315 318 321 320 320 317 315 315 314 311 311 311 312 312 312 311 313 311 308 306 308 309 308 308 310 313 310 311 311 311 309 308 307 307 306 305 304 304 304 304 304 302 301 302 301 300 300 299 300 300 300 300 297 298 297 297 295 294 295 297 295 297 298 295 296 299 295 295 296 298 300 301 300 298 299
315 317 318 316 317 317 316 317 318 317 317 317 313 312 316 314 312 311 312 312 313 313 311 311 313 312 313 312 309 308 308 308 312 312 311 311 311 310 310 309 309 309 308 309 307 306 305 304 304 303 303 301 302 302 301 301 300 300 300 300 300 300 297 297 296 296 297 296 296 296 296 297 292 292 296 295 298 296 297 297 299 301 299 299 299
315 317 318 317 316 318 318 314 320 314 313 312 311 308 310 309 308 310 312 312 313 312 311 310 310 311 313 312 312 312 310 308 309 310 313 312 311 310 308 308 308 308 308 308 306 307 305 304 303 303 302 302 302 301 302 302 302 301 301 301 301 300 298 297 296 298 297 295 294 293 295 296 294 296 301 297 296 298 297 298 299 300 298 299 300
316 316 316 316 316 317 317 315 315 312 312 312 311 310 310 310 309 312 314 314 314 314 314 310 309 308 310 311 312 312 312 312 311 311 311 312 311 308 307 307 307 307 307 306 307 306 306 305 304 303 303 303 302 302 301 300 300 300 302 299 298 298 297 297 298 298 297 296 296 293 294 295 296 298 298 299 298 297 299 299 299 299 299 300 299
315 316 315 317 315 315 314 314 316 323 313 312 311 313 312 311 309 311 310 310 309 309 309 309 307 307 310 309 313 311 312 312 313 313 311 310 308 308 307 308 308 307 307 306 306 306 305 304 304 304 304 304 304 302 300 298 298 299 299 299 298 297 297 297 297 297 296 296 294 294 293 293 294 295 297 296 296 297 298 297 298 299 300 300 300
312 312 312 312 313 313 313 313 314 309 308 310 311 310 311 310 310 309 309 309 309 309 307 307 306 307 308 310 310 309 310 313 309 308 309 308 309 309 307 307 309 306 306 305 304 305 304 304 304 304 305 305 304 302 301 301 300 300 299 297 298 298 298 298 296 296 295 296 294 294 293 292 293 295 297 297 297 297 297 297 298 299 299 301 301
313 316 314 314 315 314 313 312 310 308 311 310 309 309 310 309 308 309 308 308 307 307 305 306 307 306 306 307 309 309 309 309 308 307 305 306 308 307 308 307 307 306 305 304 304 303 303 303 304 304 304 304 303 302 302 302 301 300 298 297 299 299 298 297 296 294 292 292 292 292 293 293 293 294 294 295 295 295 296 298 299 299 300 300 301
320 318 315 315 314 313 313 310 309 308 308 309 309 307 309 308 307 307 308 307 307 306 308 304 303 305 307 307 311 310 309 308 308 306 305 306 306 306 307 306 307 306 305 304 304 303 303 303 304 305 304 304 303 303 302 302 301 299 298 297 298 296 296 294 293 292 292 292 291 292 293 294 294 294 295 294 294 293 298 300 300 299 299 300 301
Wind_Speed
7 6 6 7 7 7 6 6 7 6 7 7 7 6 5 5 5 4 6 7 6 8 7 6 6 6 6 7 7 7 7 8 7 6 6 7 7 7 8 8 6 6 6 8 7 7 8 8 8 8 8 7 7 7 7 7 7 6 6 6 7 7 7 6 5 5 4 3 4 6 7 7 6 7 7 7 7 6 6 4 3 2 2 2 2
7 6 6 6 7 6 6 5 6 7 7 6 6 5 5 6 4 6 7 7 6 6 7 5 5 6 6 7 7 7 6 7 7 6 7 8 8 6 8 8 6 6 6 7 7 6 7 8 8 8 7 7 8 8 7 7 7 7 7 7 6 6 6 5 5 4 5 6 8 7 7 7 8 10 7 9 9 8 7 6 3 2 2 2 2
6 6 6 7 6 5 6 6 6 6 6 5 6 5 5 5 5 6 7 6 6 6 6 6 5 6 7 7 7 6 6 6 6 6 7 7 7 7 7 7 6 6 7 6 6 5 7 8 8 7 6 7 7 7 7 6 6 6 7 6 6 6 6 5 4 4 5 5 4 6 6 6 8 9 9 8 8 8 9 8 6 5 4 2 2
7 6 6 7 6 6 5 5 7 6 5 4 5 4 4 4 4 6 6 6 7 6 6 6 7 6 7 8 7 6 6 6 6 6 6 6 6 7 7 6 6 6 6 5 5 5 5 7 8 7 6 6 7 6 6 6 6 5 6 6 6 7 6 5 4 2 2 4 5 5 6 6 7 8 8 7 9 9 8 8 9 10 8 7 5
7 6 6 7 5 6 5 5 6 6 5 4 4 4 5 5 5 5 6 7 5 6 5 4 5 6 7 7 6 6 5 5 6 7 6 5 5 5 6 5 5 5 6 6 6 5 7 8 6 5 5 7 6 6 6 7 6 5 5 5 5 6 6 5 6 4 3 4 5 4 5 5 4 7 9 8 9 8 8 8 8 9 10 8 6
6 5 5 6 5 5 4 5 6 5 5 4 4 4 5 6 5 4 4 6 6 5 4 4 5 6 5 5 5 5 5 5 5 5 5 6 6 5 5 4 4 5 6 6 5 5 6 6 6 5 6 6 5 6 6 6 5 6 6 6 5 5 5 6 5 5 4 4 4 5 7 7 6 7 8 7 8 9 10 9 8 10 9 8 6
5 5 5 5 5 4 4 5 4 3 4 4 5 4 3 4 5 4 4 4 5 5 5 5 4 4 4 5 5 5 5 5 5 6 6 5 5 5 5 5 4 4 5 5 5 4 6 6 5 6 6 4 4 5 6 6 5 6 5 5 5 4 5 5 5 5 5 5 5 5 5 6 6 7 7 5 4 7 8 9 10 9 7 7 6
4 4 5 4 4 4 4 3 3 3 3 4 4 4 3 3 3 3 4 4 4 5 5 4 3 3 3 4 5 5 6 6 6 7 6 6 5 5 5 4 4 4 5 5 5 5 6 6 6 6 6 4 5 5 6 6 6 5 6 4 4 3 4 4 5 5 5 5 5 5 5 6 6 5 5 8 10 9 8 6 7 8 9 7 4
4 4 3 4 4 4 4 3 3 3 3 4 4 4 3 2 2 2 3 2 3 4 5 3 3 2 3 4 5 5 6 6 4 6 6 6 5 4 4 4 3 4 4 5 5 5 5 5 5 6 10 14 17 14 12 11 6 6 7 5 3 3 4 4 5 5 5 5 5 4 5 6 6 7 8 8 7 6 6 5 4 6 6 6 6
4 3 3 4 4 4 4 3 3 2 2 3 3 3 3 1 1 1 2 3 1 1 4 4 3 2 4 4 4 5 5 4 12 16 12 5 4 4 3 3 3 4 4 5 6 5 4 5 7 15 15 16 16 16 16 16 15 10 7 5 5 3 4 4 5 5 5 6 6 5 5 5 5 5 5 4 4 4 6 7 7 7 7 7 4
3 3 3 3 4 4 4 3 3 3 2 2 3 4 2 1 0 1 1 1 1 1 3 4 3 3 3 3 4 4 5 7 16 14 15 15 6 4 3 3 3 4 4 5 5 4 4 4 5 9 10 10 11 17 17 17 15 15 15 14 12 7 4 4 5 4 4 4 3 4 4 4 4 4 4 4 4 4 4 4 5 6 7 7 6
4 3 2 3 3 3 3 3 3 3 2 2 2 2 3 1 0 1 2 2 1 1 3 3 3 2 2 3 3 4 4 11 12 13 15 16 12 6 4 2 3 4 4 4 3 3 4 4 4 4 6 8 7 7 11 16 16 16 16 16 17 18 16 8 4 3 4 3 4 3 2 3 3 2 3 4 5 5 5 4 3 4 6 6 5
4 3 2 2 2 2 3 3 3 2 3 3 2 2 2 1 1 2 3 2 3 2 0 3 2 2 2 3 2 3 4 10 11 12 13 14 15 9 5 4 3 3 3 3 3 4 3 4 4 5 5 11 7 6 5 8 13 16 16 16 16 17 16 16 14 7 2 3 2 3 1 1 3 2 3 4 3 3 4 5 5 5 3 5 4
5 4 2 1 2 2 3 4 3 2 1 2 2 2 2 1 1 2 2 3 3 1 0 1 1 2 2 2 1 1 3 9 9 10 11 12 13 9 5 5 3 3 3 2 2 3 3 3 4 5 5 6 4 6 4 7 7 8 8 7 7 11 14 16 16 15 10 3 1 2 2 1 1 2 4 2 3 4 4 4 4 4 5 4 5
4 3 3 1 2 3 3 3 3 3 3 3 3 2 1 2 3 3 2 1 1 2 2 1 1 3 2 2 1 1 2 7 7 8 10 10 11 9 6 5 4 2 1 1 1 1 2 3 2 4 4 5 6 11 5 6 7 7 7 8 7 6 5 7 7 6 5 5 4 3 4 3 2 0 2 2 1 2 3 2 3 3 4 3 1
3 3 2 1 2 3 3 3 2 2 2 2 2 1 1 1 2 2 2 3 1 0 1 1 1 1 3 3 2 1 1 3 5 7 9 9 8 5 5 4 4 2 1 2 2 2 2 2 2 4 4 4 10 15 13 6 6 7 8 7 7 7 6 8 12 11 10 6 5 5 3 2 5 3 1 2 3 3 3 1 3 4 5 6 5
3 2 2 1 2 3 3 3 2 2 2 2 0 0 0 2 3 1 2 2 2 1 1 2 2 1 2 3 3 2 1 1 2 4 6 7 5 5 4 5 4 3 3 4 4 3 3 3 2 4 4 5 11 10 12 10 6 7 7 7 6 6 8 8 11 13 15 13 14 14 15 16 10 2 0 6 5 4 3 6 6 5 5 5 4
2 3 3 2 2 1 2 2 1 0 1 2 1 1 1 2 2 1 0 0 1 2 2 0 1 2 1 3 3 4 3 3 2 1 4 4 4 3 3 3 3 3 4 4 4 4 6 12 2 1 5 4 10 9 11 9 5 5 5 6 7 7 7 8 7 7 13 12 15 15 12 9 6 5 10 8 8 5 6 5 2 2 4 3 4
3 3 2 1 1 1 2 3 3 2 1 2 2 1 2 2 1 0 0 1 2 2 0 1 2 1 1 2 7 5 4 4 5 3 3 2 1 2 2 3 4 3 3 4 4 5 4 5 11 10 8 8 12 10 11 8 4 3 3 4 5 6 5 6 6 7 8 8 8 8 8 10 7 5 7 12 9 6 3 2 1 3 2 3 3
3 3 2 2 2 2 2 2 1 2 3 3 3 3 2 1 1 0 0 0 2 3 3 1 0 1 1 0 0 3 4 4 3 5 3 2 1 0 1 2 2 3 4 3 5 5 4 5 7 11 10 11 13 14 12 10 4 2 2 3 4 5 5 5 5 6 5 5 5 4 6 6 6 6 5 6 6 4 1 1 0 0 1 1 2
2 3 2 1 1 1 1 1 1 1 3 3 3 3 2 2 2 1 1 2 2 3 3 2 1 2 2 1 1 2 4 4 4 6 4 3 2 1 0 1 0 1 2 3 4 5 6 6 6 10 12 12 12 13 13 11 7 1 2 3 2 3 3 4 6 10 4 5 5 5 6 6 6 6 6 6 6 6 4 2 2 1 2 3 3
3 3 3 2 1 0 0 0 1 2 2 0 0 0 1 3 3 3 1 1 2 2 2 2 0 2 3 3 1 2 3 8 4 6 4 3 2 3 1 2 1 0 3 3 4 4 5 5 5 8 12 12 12 11 10 9 9 3 5 5 8 10 5 4 4 5 6 6 6 7 7 7 7 7 7 7 7 7 6 5 4 4 3 3 2
4 4 3 3 2 1 2 1 1 1 3 2 1 2 1 1 1 1 1 1 1 3 3 3 2 3 3 3 3 2 2 1 8 4 4 1 1 2 3 2 4 0 1 3 3 4 4 5 6 12 11 12 11 10 10 10 6 5 8 9 8 8 8 5 5 6 6 6 6 6 6 6 6 7 6 7 7 6 6 5 5 5 4 3 3
4 4 3 3 4 3 3 2 1 1 1 2 2 1 2 2 2 1 1 1 1 3 4 4 3 3 3 5 4 4 1 2 2 8 4 4 2 1 2 4 5 3 1 1 2 3 5 5 6 10 10 10 10 9 8 7 5 8 9 8 8 7 4 5 5 5 5 6 6 6 6 5 6 6 6 6 6 5 6 5 6 6 5 4 3
4 4 4 4 3 4 4 3 3 3 3 2 2 2 3 3 3 3 1 2 2 2 5 3 3 2 2 4 5 5 2 3 2 5 9 7 4 2 1 3 6 3 1 1 3 4 7 10 11 10 10 10 9 7 5 7 10 9 8 8 7 5 5 5 5 5 6 6 5 5 5 5 5 4 5 5 5 6 6 7 7 7 7 5 3
3 4 4 4 4 4 4 3 3 4 4 2 3 4 3 3 4 4 2 4 3 3 4 3 3 2 2 3 3 4 1 2 2 1 3 4 4 4 2 4 6 5 3 3 7 9 8 9 8 8 8 7 3 3 3 5 12 11 9 8 4 4 3 5 5 6 6 5 5 5 5 5 6 5 4 6 7 8 6 6 7 9 8 7 7
4 4 4 5 4 3 4 4 4 4 4 3 2 2 3 4 4 3 4 4 4 4 4 3 3 3 3 4 3 2 0 4 3 3 3 2 1 0 1 1 5 5 3 3 6 6 8 8 6 5 7 8 7 7 7 8 7 6 4 3 3 4 4 3 4 5 5 5 5 5 5 6 5 7 8 7 7 7 6 5 6 7 7 6 6
1 1 5 5 4 4 4 7 6 5 5 4 4 4 2 3 4 5 6 6 6 6 5 5 5 5 6 5 4 2 1 4 5 5 4 4 3 2 1 0 1 2 3 3 2 3 5 6 6 4 2 3 3 4 5 5 5 4 4 3 4 3 6 8 8 5 4 3 5 5 5 6 7 6 6 6 7 7 6 6 6 6 6 6 7
2 1 1 2 4 3 3 4 3 5 5 4 4 5 5 4 5 5 5 6 6 6 6 6 6 5 5 5 4 6 3 4 5 7 5 6 5 4 3 3 1 0 1 3 0 2 5 6 6 5 3 2 2 4 5 6 6 4 3 3 3 4 4 6 6 5 5 6 6 6 6 6 7 6 6 6 7 6 7 7 6 7 6 6 6
2 3 3 0 3 2 0 1 3 3 4 5 4 4 6 6 5 5 5 8 11 11 8 7 7 5 5 6 5 5 6 5 3 8 8 9 8 7 4 5 3 1 0 5 1 3 2 4 4 4 1 1 1 3 6 5 5 5 4 3 3 3 3 4 5 4 5 5 6 6 6 6 7 6 6 6 6 7 7 7 6 6 7 7 7
1 1 0 1 3 2 2 2 3 4 4 3 3 3 6 7 7 7 9 10 11 12 11 13 12 8 5 6 5 7 4 1 4 7 7 9 8 7 4 4 3 2 2 1 1 2 2 3 2 2 3 0 0 2 4 4 4 5 4 3 3 2 2 4 4 3 4 5 5 5 5 6 6 6 6 6 6 6 6 6 6 6 6 6 6
1 1 1 3 2 1 3 3 3 3 5 3 3 4 4 5 7 9 9 8 11 12 13 14 12 11 10 9 6 2 4 6 5 6 7 7 7 3 5 4 3 2 2 1 1 1 1 1 0 1 3 1 0 1 2 3 4 4 3 3 3 2 2 3 3 5 4 5 5 4 5 5 5 5 5 5 5 5 6 6 7 6 6 5 6
3 3 3 3 3 4 2 2 3 3 4 4 5 4 4 5 5 7 9 8 7 10 12 12 12 13 12 9 6 8 7 2 3 4 5 5 6 3 6 5 6 4 2 1 1 0 2 1 1 1 2 3 1 1 2 1 3 4 3 1 3 1 1 1 4 4 3 3 3 4 4 4 4 3 3 4 4 5 5 6 6 6 5 5 5
4 4 4 4 4 4 4 4 4 5 4 4 5 4 5 5 5 5 6 7 8 7 5 8 10 10 9 8 9 9 7 7 6 7 6 6 5 2 5 3 7 7 5 3 1 1 2 3 3 2 3 3 2 0 1 1 2 3 1 2 1 3 1 2 5 3 3 2 3 3 3 4 3 4 4 4 5 4 6 5 6 6 6 5 5
5 6 8 5 4 5 4 4 5 5 4 5 4 4 5 5 4 4 4 6 7 7 7 7 4 5 6 5 6 6 6 6 6 5 5 4 4 3 3 1 1 1 2 2 2 2 3 3 3 4 3 4 3 1 1 0 1 3 3 1 0 2 2 3 4 3 2 2 2 2 1 3 2 1 1 3 4 6 6 6 6 5 4 5 5
5 5 5 6 5 5 5 5 6 5 6 6 5 4 4 4 4 5 5 4 5 6 7 5 4 5 6 7 4 2 3 3 1 3 4 4 4 5 2 3 3 4 3 3 3 2 3 3 3 5 4 5 4 2 0 0 1 2 4 1 2 3 3 3 3 2 2 3 2 1 3 3 4 2 2 2 3 3 4 4 5 4 4 3 4
6 6 6 6 5 5 6 5 5 5 5 4 5 4 4 4 4 5 4 5 5 5 5 6 5 5 2 0 4 7 6 6 7 6 5 5 5 4 4 3 3 3 3 1 1 1 3 4 5 6 5 6 4 3 1 0 1 2 3 3 5 4 3 3 2 2 3 4 5 4 4 3 5 3 1 2 2 3 3 3 3 4 4 7 7
6 6 6 5 4 4 4 6 6 6 4 4 5 4 5 4 4 4 4 4 4 4 4 5 4 4 5 5 2 3 4 5 7 6 4 3 2 4 5 4 4 4 5 2 2 3 4 6 6 6 6 6 6 3 1 0 1 4 6 5 4 3 5 3 2 2 3 5 5 4 4 5 5 3 2 2 1 2 3 2 3 5 5 6 4
5 8 9 10 6 6 6 6 5 4 4 4 5 4 4 4 4 5 5 6 5 4 4 5 4 5 6 4 1 4 5 0 2 5 4 4 4 3 3 5 4 5 4 3 2 2 5 6 6 6 6 6 6 4 2 2 4 5 5 5 4 3 4 3 3 3 4 4 4 3 3 4 5 3 2 2 1 1 2 3 2 3 4 5 4
6 6 7 9 6 5 5 5 4 4 4 5 6 5 4 4 4 5 6 6 7 5 6 6 5 6 6 2 3 4 5 4 4 5 4 3 4 4 5 5 6 6 6 3 4 4 6 6 7 7 6 6 5 4 4 3 5 6 6 6 6 5 3 3 3 3 3 3 3 3 4 3 4 4 3 2 1 2 3 4 3 2 3 3 3
6 5 5 5 5 4 4 4 4 5 5 5 6 5 6 5 4 4 5 6 7 6 5 6 7 7 6 6 8 8 6 6 5 4 5 4 4 5 6 6 6 6 6 4 5 5 6 7 7 7 6 6 6 5 5 3 4 6 7 6 6 5 5 3 3 2 2 2 2 1 1 2 2 3 3 2 3 3 3 3 3 2 2 3 3
6 5 4 4 4 4 4 4 4 4 4 4 4 6 5 4 5 4 5 5 5 6 6 6 7 7 8 11 11 11 6 5 4 4 5 5 5 5 6 6 6 6 6 6 6 6 6 7 7 6 6 6 6 6 4 5 4 5 6 7 7 6 6 5 4 3 3 2 0 0 0 0 1 2 2 2 2 3 3 4 3 3 1 3 4
5 4 4 4 5 6 5 6 4 5 4 3 5 6 5 4 5 4 5 4 4 4 5 6 7 6 7 9 9 7 5 5 5 6 6 5 5 6 6 7 7 7 7 6 5 6 7 7 7 6 7 7 6 6 6 6 5 5 6 7 7 7 7 6 4 4 3 3 1 1 0 0 1 2 2 1 2 1 3 3 4 4 2 3 3
4 2 1 2 3 4 4 4 4 4 4 4 5 4 4 4 4 3 4 5 5 5 6 6 5 5 6 6 3 3 5 6 6 7 6 6 6 6 6 6 6 6 6 6 5 5 6 7 6 6 5 4 4 4 5 6 6 6 6 7 6 6 6 6 6 5 4 4 3 1 1 0 1 1 1 1 2 2 3 3 4 3 2 3 3
3 1 1 2 3 5 4 3 3 3 3 4 4 4 3 3 4 4 4 4 4 4 6 5 4 4 4 5 5 6 6 6 6 6 6 7 6 6 6 6 6 7 6 6 4 5 7 7 7 6 5 5 5 5 6 5 5 6 6 7 7 6 6 7 7 6 5 5 3 2 1 1 1 0 0 1 2 1 3 3 3 3 3 3 3
4 3 2 3 4 4 2 4 3 2 4 5 5 5 5 4 3 3 4 4 4 5 6 5 4 4 5 6 5 5 6 6 7 7 6 6 6 7 6 6 6 6 6 6 4 6 7 8 7 7 7 7 6 6 6 5 4 4 5 7 7 8 7 6 6 6 6 5 5 4 3 2 2 2 2 1 1 1 2 2 2 2 3 3 3
4 4 3 2 3 4 3 4 2 4 4 4 3 4 4 4 3 4 3 3 3 3 5 6 6 5 5 5 5 6 6 6 7 7 7 7 7 7 6 6 6 6 6 5 5 6 7 8 8 8 8 7 7 7 6 4 4 4 5 6 5 5 5 5 6 6 6 6 5 4 3 3 2 1 2 0 1 1 1 1 2 3 3 3 3
3 3 2 1 2 4 4 3 4 4 2 3 3 4 3 3 3 3 4 4 4 3 4 4 5 5 5 6 5 5 6 6 6 6 7 7 7 6 5 5 6 6 5 6 6 6 7 8 8 8 7 7 7 6 6 5 5 5 5 5 6 6 8 8 5 5 5 5 4 4 4 4 3 2 2 1 1 1 1 1 1 2 2 3 3
4 3 1 2 3 4 3 5 4 3 3 2 3 2 3 3 3 3 3 3 3 4 3 3 4 4 4 5 4 4 4 4 6 6 7 7 6 5 5 5 5 6 6 7 6 6 7 7 8 8 8 7 7 7 6 6 6 6 6 6 8 11 11 10 6 6 6 6 4 3 3 3 3 3 2 1 1 1 3 2 2 3 3 3 3
3 1 1 3 3 3 4 4 4 4 4 4 2 2 3 3 3 3 3 3 4 4 4 3 3 3 4 4 3 4 4 4 6 7 7 6 5 4 5 5 5 6 7 7 6 6 6 7 8 7 7 7 7 7 7 7 7 7 6 7 9 10 11 12 10 8 6 4 4 4 4 3 3 2 2 2 1 1 2 3 3 2 3 4 4
2 1 2 4 4 4 5 6 5 4 4 3 3 3 3 4 4 3 3 3 4 4 4 4 3 3 3 3 2 3 4 6 7 7 5 5 5 4 5 5 6 6 6 6 6 6 6 7 7 7 7 7 7 7 7 7 7 7 9 11 13 13 12 10 7 7 7 5 3 4 3 3 3 3 3 3 2 2 3 3 3 2 3 4 4
Wind_Direction
86 84 84 76 77 71 63 56 48 45 48 50 57 47 39 37 31 24 22 23 30 62 72 67 59 55 48 40 32 23 13 6 4 360 7 7 3 0 1 9 20 30 38 35 31 38 38 39 34 28 17 26 22 18 13 7 5 12 8 9 8 3 4 353 358 338 314 327 334 342 334 349 3 8 7 1 1 4 13 21 24 327 287 302 294
93 92 82 80 78 77 71 65 59 52 53 46 50 44 38 34 25 29 29 23 45 78 79 69 59 50 49 37 33 28 16 9 359 5 10 7 5 5 2 5 14 36 42 41 36 41 46 44 31 24 19 21 19 18 7 4 7 6 7 4 4 359 355 356 343 345 330 329 353 346 358 8 18 4 12 7 1 357 8 15 6 341 325 301 307
90 92 89 85 83 79 74 66 63 58 56 47 53 48 40 35 31 36 32 35 48 61 64 64 52 46 42 35 32 27 14 5 359 6 7 9 6 1 3 7 19 37 46 43 37 38 52 49 35 24 19 21 17 6 3 4 3 6 359 355 353 350 346 353 345 342 340 326 327 348 360 6 31 3 7 15 14 10 5 1 360 355 354 342 314
98 95 90 85 83 74 67 61 62 57 55 41 54 54 46 33 33 39 36 45 58 60 58 53 49 40 34 31 27 20 10 1 1 5 5 5 5 2 4 12 26 38 41 41 37 33 49 52 40 28 17 22 12 5 357 355 360 356 355 347 343 340 337 336 347 319 306 327 339 3 356 20 23 15 11 10 16 14 11 0 7 4 352 349 1
94 91 95 95 88 84 69 62 64 55 53 41 32 54 52 35 29 42 44 48 60 76 65 53 50 42 36 26 17 10 359 357 359 1 359 1 3 6 10 17 31 38 40 34 43 49 49 51 43 31 25 24 9 2 350 353 344 349 349 338 335 331 326 332 333 338 327 344 337 357 8 30 27 30 19 14 4 11 5 12 10 4 1 359 17
95 103 102 98 93 89 84 74 68 61 58 50 42 31 51 61 52 47 62 61 66 80 81 58 53 45 31 19 15 2 349 350 356 355 355 358 4 13 18 23 32 43 41 35 33 44 58 49 43 33 36 32 6 348 350 343 338 339 338 333 331 324 327 330 338 342 353 356 3 5 22 17 16 34 15 12 20 13 6 357 8 13 5 358 14
94 103 108 111 111 110 100 91 87 74 68 62 56 51 40 64 67 54 52 71 73 87 90 68 49 43 22 14 11 6 358 351 351 358 4 9 12 24 31 34 29 35 37 30 26 28 40 36 38 36 30 24 13 358 346 342 336 327 322 322 318 325 331 335 346 355 5 13 18 31 24 19 24 21 11 2 35 39 16 1 3 355 357 353 350
94 96 105 114 119 118 113 116 110 111 92 72 67 66 56 60 66 63 56 52 62 85 101 98 77 40 17 17 9 6 1 353 358 7 11 17 22 36 43 51 39 30 36 30 29 36 31 14 16 35 26 15 28 14 359 341 332 329 328 323 315 336 346 351 6 11 12 16 25 30 26 18 15 18 5 17 22 18 18 5 358 350 343 333 326
99 93 88 102 124 130 131 122 108 83 76 79 75 78 83 75 57 70 78 60 78 93 113 134 122 81 35 29 19 6 0 355 3 17 8 16 24 30 41 58 46 43 33 24 30 33 24 9 357 27 26 23 24 19 14 10 359 354 342 345 351 6 20 22 22 25 21 21 16 15 29 29 21 12 16 22 21 355 336 350 346 349 332 331 327
104 99 94 110 129 138 137 132 115 106 83 89 91 85 90 98 89 73 127 110 80 64 86 114 132 110 65 36 24 7 2 357 26 26 23 38 32 31 35 56 51 44 38 30 27 25 20 17 6 21 25 23 19 15 12 12 14 16 4 9 359 10 47 54 40 35 35 30 10 4 22 26 22 20 16 4 345 332 356 359 1 343 343 347 319
109 111 104 90 101 122 135 138 131 135 158 103 86 101 112 158 325 348 18 89 97 51 58 82 87 77 74 61 29 9 356 13 23 21 21 30 41 33 34 37 53 44 42 40 31 16 6 7 9 9 10 22 14 11 9 12 11 15 18 24 43 51 63 56 57 48 44 33 3 15 16 10 19 7 355 336 348 345 351 351 345 352 1 1 345
108 98 84 60 66 96 128 140 147 169 168 139 118 109 108 92 0 336 5 35 111 63 49 83 116 118 92 71 35 6 359 15 18 21 21 27 37 36 19 36 58 58 51 42 23 6 3 6 4 5 356 20 17 3 2 8 8 11 15 17 25 35 38 48 68 54 39 25 14 352 356 355 330 351 344 352 343 339 348 351 350 346 345 348 329
94 82 58 61 51 81 116 129 145 160 185 180 148 93 79 61 10 6 17 41 99 102 69 79 122 135 118 101 57 6 351 13 18 22 22 25 34 38 23 14 26 47 61 46 20 10 7 7 11 10 349 4 4 1 4 1 1 6 9 11 14 23 27 28 35 46 107 33 347 326 289 300 338 339 358 353 323 336 342 351 350 335 331 324 314
106 121 126 73 51 73 81 87 82 73 56 45 50 50 38 28 332 328 38 50 77 99 294 101 118 150 167 135 82 349 355 15 10 15 25 27 31 39 25 29 44 28 29 38 19 10 360 3 23 13 351 353 346 9 4 7 0 357 358 1 2 6 10 15 14 11 15 20 321 298 281 236 287 331 341 350 349 343 337 352 338 333 330 320 305
113 130 120 93 73 85 85 97 105 93 83 85 78 57 39 17 27 359 356 43 131 162 188 211 208 158 172 143 127 32 336 14 358 13 27 29 30 41 30 32 35 33 1 356 353 0 356 347 355 15 359 346 354 16 10 14 2 357 360 1 356 354 358 2 356 345 349 344 330 281 270 256 223 328 351 318 313 303 254 282 345 325 302 300 303
127 127 111 117 110 101 88 65 73 80 81 73 72 55 347 28 11 329 17 353 348 342 273 245 269 169 172 171 145 122 295 348 2 27 23 25 33 35 34 40 34 10 338 308 312 305 291 296 308 352 7 335 9 10 5 20 11 3 0 355 355 352 356 354 352 358 4 351 347 349 309 226 99 83 7 2 11 340 342 44 25 10 20 15 358
130 133 151 176 143 125 109 98 108 126 112 85 106 276 356 352 329 313 0 335 340 331 268 261 260 244 168 180 156 185 239 323 352 53 31 20 34 29 34 36 39 17 322 302 300 298 286 258 282 5 5 343 2 6 356 13 13 6 357 355 350 356 353 346 345 354 357 4 15 25 63 82 91 154 171 50 42 29 35 38 20 360 31 8 341
109 114 154 175 180 163 153 147 154 188 108 147 195 268 286 310 287 300 114 228 316 298 283 265 304 247 192 179 173 174 216 219 181 55 62 39 49 53 32 44 44 23 343 317 308 317 313 6 5 7 359 339 357 354 360 8 14 1 356 349 357 356 349 345 345 351 358 9 15 21 33 76 99 39 36 46 50 54 68 56 342 15 38 19 347
123 119 124 147 159 205 173 158 179 200 193 235 232 236 264 247 287 83 136 245 255 287 296 42 344 341 268 201 194 170 192 210 199 215 144 73 45 54 53 53 24 5 349 321 312 315 315 327 348 358 354 355 351 346 352 3 5 2 339 350 355 352 334 334 334 2 1 8 8 8 13 20 23 13 6 14 25 46 84 83 39 71 47 356 345
173 136 139 140 137 130 148 167 194 219 235 238 262 246 246 289 297 301 315 208 303 334 337 301 137 275 278 234 305 149 178 218 211 214 183 187 198 101 68 63 16 352 334 333 333 332 318 325 343 344 353 350 346 343 340 349 1 333 356 7 346 339 321 327 352 28 359 12 3 8 9 4 12 5 360 4 0 348 4 50 128 130 51 354 346
147 142 135 116 135 145 180 144 142 231 226 206 223 237 214 239 274 285 331 348 30 9 357 334 206 273 287 279 295 193 183 192 207 210 207 213 248 267 106 338 224 302 314 325 337 328 326 329 327 338 349 342 340 339 337 336 349 19 350 348 309 295 330 6 358 17 13 15 11 11 12 8 9 7 4 1 2 347 335 330 323 253 280 316 325
164 149 138 177 203 268 127 234 200 217 250 242 74 299 271 222 223 243 301 43 26 345 334 329 323 301 295 300 278 293 190 186 199 198 211 214 249 342 14 305 347 256 330 336 333 336 331 323 319 329 341 337 336 339 343 342 351 26 3 5 37 41 26 16 7 11 15 15 15 15 12 10 5 3 2 1 355 349 341 323 316 310 282 235 244
166 168 186 187 222 246 257 271 284 305 269 245 245 276 284 192 235 231 272 6 12 351 320 315 330 322 308 299 294 263 270 227 168 169 184 202 337 354 357 353 6 81 21 349 332 314 307 314 310 333 337 333 336 357 7 4 357 16 34 60 54 31 27 9 16 13 13 11 22 19 10 6 5 1 358 354 341 339 337 331 329 325 315 303 273
177 191 206 214 221 229 237 248 259 250 238 240 217 197 234 252 280 256 277 279 300 321 306 309 332 327 301 296 301 300 332 257 157 148 144 161 103 84 332 76 70 51 57 5 321 325 321 321 322 329 337 352 10 13 11 28 21 39 71 70 57 39 20 18 15 11 15 19 21 19 8 0 1 2 350 337 333 325 324 347 346 337 341 326 302
199 211 221 237 232 226 237 256 262 244 255 212 235 243 244 225 251 274 275 281 260 264 279 289 293 279 286 284 292 297 322 235 250 158 150 138 133 142 41 107 88 80 61 349 4 338 333 332 334 345 10 21 18 10 4 20 37 59 61 63 55 43 24 22 17 15 23 17 17 13 7 359 344 339 325 328 336 6 6 357 351 358 2 6 6
220 224 225 237 241 238 230 267 257 259 269 253 239 247 232 223 220 251 239 246 252 243 263 275 263 259 264 271 282 282 285 187 163 95 105 121 143 154 123 28 38 36 52 28 2 349 344 349 357 28 36 38 18 359 354 25 31 36 53 54 33 33 28 29 17 24 22 15 16 10 355 353 349 329 345 3 18 13 356 3 2 9 6 9 10
225 220 231 240 252 244 235 238 250 267 276 292 306 294 245 210 227 233 216 228 246 254 251 253 264 268 268 263 262 269 254 184 186 182 177 148 168 131 34 26 23 13 33 23 5 358 356 4 354 19 77 51 34 18 14 24 29 25 10 23 30 28 21 40 43 31 23 16 10 357 357 350 345 13 10 7 15 9 2 10 18 10 9 359 24
2 290 218 227 228 233 244 248 236 240 261 262 266 286 285 205 203 224 226 223 230 256 254 257 259 257 264 266 259 267 241 201 203 193 205 194 196 204 186 107 71 32 345 10 14 0 3 359 7 1 23 49 19 2 10 12 27 18 14 2 29 27 25 26 32 34 27 19 9 5 9 8 13 4 5 14 18 12 3 14 19 11 10 0 32
64 1 6 212 229 239 229 249 226 214 241 261 253 232 238 242 226 242 241 207 208 226 244 254 249 238 236 243 244 264 255 218 223 201 193 190 184 191 199 188 170 284 6 331 340 53 20 15 355 358 345 27 353 21 16 12 5 5 2 1 26 25 19 34 39 31 27 29 24 22 16 9 8 7 7 17 18 9 4 14 16 15 6 27 37
70 31 359 309 215 229 176 233 204 210 226 248 268 292 245 241 228 224 258 254 239 233 228 237 239 229 231 239 208 222 244 235 217 180 198 195 207 198 194 139 136 149 277 295 357 73 50 17 4 336 314 2 340 29 32 11 356 345 336 4 28 33 24 32 35 30 30 37 32 27 17 15 12 11 11 16 10 10 7 23 10 11 23 18 23
116 123 264 239 235 207 217 238 255 247 239 243 253 262 289 306 287 258 249 267 271 274 259 247 258 251 221 260 250 226 257 70 177 197 201 209 212 214 163 134 158 188 275 296 85 85 72 44 353 336 300 286 0 46 36 8 345 334 327 330 30 34 32 42 33 37 41 39 37 27 22 23 20 14 19 14 16 8 6 11 15 14 23 13 27
200 236 232 246 277 215 203 229 246 253 275 268 257 255 266 281 301 303 288 265 275 273 268 267 263 251 244 235 255 298 192 203 210 212 218 223 228 202 129 170 201 197 273 307 316 81 120 131 110 269 274 271 7 60 44 9 342 328 333 338 45 28 30 56 52 65 49 49 34 27 23 23 22 20 20 15 18 13 9 10 10 7 11 18 29
212 235 234 254 255 267 262 254 271 271 278 285 289 278 265 262 282 295 312 313 283 263 272 268 258 252 251 254 234 244 247 214 184 213 225 230 237 168 150 191 218 212 170 183 219 147 150 213 180 223 261 257 252 120 65 28 341 343 329 329 93 41 39 50 88 72 67 60 44 28 29 24 26 21 15 11 17 10 7 12 2 5 12 22 23
216 210 223 232 238 242 250 259 269 277 268 266 262 267 268 266 264 273 293 302 320 327 305 268 262 268 271 250 242 242 248 247 236 231 235 232 235 167 136 190 224 207 196 237 162 201 175 216 175 187 242 253 255 214 71 19 341 336 355 340 105 122 98 93 85 86 79 63 54 17 21 21 31 21 7 12 4 12 11 11 8 10 8 9 19
229 235 250 245 198 229 241 247 257 263 273 271 270 272 276 275 271 273 264 274 290 289 287 306 308 200 241 261 235 220 223 223 215 210 199 208 205 169 153 206 207 146 211 215 197 184 180 215 172 174 215 251 261 234 155 138 339 335 337 345 298 107 90 86 98 105 101 83 50 4 353 8 7 24 358 352 12 14 8 10 3 4 10 6 13
223 234 239 260 262 250 254 253 254 253 256 263 257 258 257 265 269 263 266 273 274 278 297 280 271 281 245 255 293 80 238 249 201 150 149 168 170 153 185 214 205 226 212 194 188 201 170 192 192 168 210 239 257 271 211 118 336 315 295 293 148 131 112 108 109 111 96 76 55 317 331 359 4 349 19 353 355 11 14 17 5 355 3 11 11
229 235 245 244 235 246 256 256 255 250 248 249 262 264 260 261 258 260 266 268 272 277 268 291 315 320 320 343 119 75 67 91 92 100 119 143 162 183 205 206 206 229 260 248 212 190 163 193 185 174 194 219 234 233 212 228 309 344 346 79 126 122 125 129 135 118 85 65 44 17 1 345 348 339 82 36 5 20 17 22 4 357 355 353 356
221 230 239 242 230 236 250 256 253 253 259 262 256 247 253 248 247 254 263 264 258 262 280 286 273 259 270 275 238 170 118 116 110 87 92 109 147 197 210 223 216 215 231 206 206 234 200 182 180 172 200 210 221 233 139 342 62 49 59 84 123 152 127 112 105 87 76 73 55 26 21 14 2 357 29 61 34 24 11 5 0 356 352 359 10
240 246 247 253 247 232 237 251 263 260 268 266 261 258 255 251 248 258 256 261 265 256 251 241 244 257 255 241 227 151 127 195 233 243 204 200 210 210 204 217 231 238 241 189 212 175 166 176 178 174 195 203 216 213 169 179 99 80 103 107 103 85 88 76 72 57 61 56 55 40 31 21 10 359 22 54 14 355 352 340 320 4 23 12 354
232 242 250 249 248 245 237 242 248 257 262 259 265 258 264 269 264 254 258 260 261 251 227 231 233 240 247 209 197 171 193 225 236 247 243 207 204 208 206 218 220 228 239 201 180 175 175 175 177 182 196 204 210 196 186 170 126 123 120 120 125 120 103 86 81 77 64 50 56 43 35 17 4 1 0 2 337 4 355 347 331 355 19 15 339
234 233 237 238 228 230 242 239 249 251 251 252 248 252 253 265 262 254 249 251 257 256 232 229 232 238 236 230 211 188 205 220 232 232 239 232 217 203 210 219 217 226 233 230 193 179 176 176 186 190 194 199 193 189 181 155 145 138 139 135 131 126 125 118 119 110 94 70 62 50 42 23 23 21 347 320 9 22 354 357 3 355 26 357 319
230 233 234 237 235 229 244 259 257 262 260 256 259 254 264 269 271 264 256 255 250 250 240 239 238 238 240 236 229 204 202 239 236 242 245 244 232 222 213 217 218 222 221 220 195 177 176 186 189 186 189 188 187 194 176 138 162 157 146 138 144 145 141 148 154 153 137 125 180 301 41 15 35 14 342 345 352 11 350 357 1 337 331 320 330
218 225 222 217 218 222 234 251 265 278 276 263 265 270 262 256 262 271 283 275 258 251 244 242 249 238 240 234 234 210 214 234 242 238 242 239 233 230 223 218 220 221 223 224 197 182 179 184 186 186 190 190 186 182 174 166 166 161 151 146 153 153 153 160 158 166 170 163 192 260 349 29 50 19 341 327 302 353 350 325 321 320 321 318 337
215 228 225 217 230 246 255 258 271 267 262 257 260 259 258 265 268 272 265 266 262 261 254 245 240 238 240 245 218 185 220 229 240 243 245 243 237 230 228 224 222 223 226 229 197 178 175 180 181 192 193 185 189 183 168 167 162 159 151 153 160 161 163 161 164 176 182 187 195 214 249 247 88 42 2 330 319 1 334 335 328 313 313 335 336
226 226 247 237 233 237 263 270 261 263 248 260 281 281 283 276 275 271 266 264 266 266 266 264 250 236 240 233 209 212 219 224 234 243 244 245 245 237 226 224 218 218 220 230 200 160 173 177 175 172 175 190 181 175 183 181 177 162 154 154 164 169 177 179 177 181 173 180 196 194 211 190 184 191 285 288 278 333 330 327 323 328 335 333 330
235 229 221 238 266 282 291 296 274 199 211 230 243 268 279 283 282 301 304 298 289 282 278 276 255 229 233 235 220 218 223 223 232 238 245 248 248 244 229 216 213 209 212 215 181 169 172 171 169 173 177 180 181 192 195 191 177 164 158 160 169 180 189 185 171 161 172 181 191 198 204 190 201 213 233 235 260 305 279 297 325 319 298 315 318
232 239 242 252 277 288 280 272 247 205 214 233 249 265 278 286 307 325 327 320 307 304 298 294 291 263 237 232 224 218 221 221 228 235 237 242 244 239 220 209 204 207 211 187 173 171 165 171 172 175 176 177 181 190 195 180 176 176 167 165 169 174 181 177 175 173 178 187 188 182 196 194 197 223 270 0 353 324 286 309 305 305 298 312 314
239 245 238 240 261 275 273 236 217 199 210 237 256 258 272 305 322 323 313 308 309 303 301 303 299 280 268 254 228 217 216 223 228 233 238 243 245 230 210 197 194 194 176 171 172 165 169 172 177 176 175 176 182 188 186 174 175 165 158 167 174 181 182 175 176 178 182 183 184 186 188 191 198 214 238 220 236 280 271 268 295 294 297 308 315
234 250 292 291 274 266 230 205 205 194 206 220 240 276 300 302 299 291 283 285 284 279 270 281 299 306 296 273 255 232 220 218 225 234 238 243 244 225 204 197 183 172 168 174 177 175 173 177 176 178 180 183 183 178 179 175 173 170 175 182 190 192 178 168 168 186 181 179 182 184 182 182 196 220 236 233 234 283 282 293 302 300 303 295 293
240 213 195 248 249 222 216 210 194 192 209 215 221 266 272 279 283 293 294 295 291 291 298 299 298 298 300 297 284 261 245 229 229 231 233 238 238 214 195 188 180 180 181 182 184 179 174 175 177 180 183 185 181 180 182 178 177 179 184 190 189 176 172 178 176 172 167 179 180 181 184 195 189 202 228 241 244 273 274 269 270 289 297 297 297
230 213 197 237 231 206 207 210 207 213 211 217 230 243 261 269 275 280 281 271 271 280 280 275 280 289 283 269 254 244 236 233 230 228 223 215 216 204 196 192 195 196 198 191 182 176 175 175 179 182 184 187 186 186 186 184 182 184 186 182 175 174 178 173 172 179 173 166 163 163 179 192 204 214 229 228 228 243 266 268 281 293 300 291 295